CAPE
115 413 1176 1951 1201 0 0 0 0 0 0 0 27 111 257 152 46 551 959 979 960 1328 2084 2439 3233 3597 3660 3465 3350 3210 2947 2511 2671 2984 2882 2656 2998 2546 2249 2178 2106 1986 1845 1645 1640 1776 1609 1490 1435
129 485 1457 920 242 0 0 0 0 0 0 23 16 68 364 437 798 966 902 901 983 1099 1876 2554 3207 3521 3647 3486 3363 3306 3052 2556 2733 2770 2752 3053 2881 2548 2294 2033 1969 2099 2056 1975 1770 1834 1742 1570 1593
185 445 1096 630 3 0 0 0 0 1 6 69 81 399 314 350 574 682 760 882 787 1152 2028 2568 3508 3583 3551 3589 3430 3352 3263 3165 2930 2798 2710 2777 2596 2468 2143 2034 2085 2068 1880 1913 1871 2013 1753 1541 1648
181 208 347 365 0 0 4 0 0 59 56 22 86 329 693 534 540 742 953 875 1049 1479 2308 3142 3310 3044 3361 3624 3554 3437 3367 3383 3227 2808 2759 2817 2401 2323 2444 2193 2017 1872 1792 1903 1896 1890 1858 1626 1560
78 190 59 21 13 1 11 0 4 23 231 297 431 638 663 501 593 739 777 1047 1431 1506 2109 2590 3231 3335 3451 3617 3613 3542 3502 3452 3262 2827 2571 2486 2637 2624 2471 2148 1903 1762 1636 1829 1799 1758 1841 1588 1568
69 26 86 62 25 79 40 4 13 1 569 559 638 624 585 463 521 667 1191 1506 1374 1296 1743 1989 2834 3069 3036 2904 2908 2982 2913 2828 2708 2630 2636 2605 2764 2801 2744 2064 1947 1793 1538 1795 1326 1621 1673 1378 1391
17 63 45 132 63 159 72 25 15 15 689 664 696 654 575 504 513 1271 1450 1131 930 1004 1324 1862 2069 1958 2265 2490 2463 2556 2499 2477 2878 2878 3159 2750 2590 2424 2682 2807 2571 1882 1643 1611 571 1352 1622 1462 1370
17 114 67 91 59 64 175 52 52 55 196 883 753 680 707 658 729 1294 1458 983 823 1045 1167 1405 1716 1775 1963 2136 2806 2917 2910 2740 2464 2559 2543 2516 2450 2415 2168 2794 2681 1912 1711 1568 1465 1273 1591 2191 588
104 2 1 85 92 111 101 128 356 624 827 1214 1049 934 754 941 845 922 1260 1185 1121 1135 1086 1259 1404 1555 1661 1838 2139 2900 2477 2250 2265 2111 2118 2430 2214 2111 2187 2088 2234 2075 1895 1644 1458 1776 2063 2005 1324
74 21 49 26 17 19 2 149 112 511 459 1271 1223 1035 883 961 1158 1055 1195 1325 1377 1221 1265 1347 1374 1477 1802 2084 1974 2054 1789 1705 1730 1823 1653 1683 1480 1628 1842 1869 2245 2195 1940 1790 2006 2414 1971 1610 1277
33 0 7 5 12 0 41 239 340 378 226 1019 1273 1104 1026 876 1204 1113 1014 1238 1300 1476 1428 1578 1606 1722 1912 1976 2017 1990 1928 1943 1961 1863 1909 1782 1597 1705 1662 1620 1638 1641 2015 1495 2012 1903 1531 1302 1008
19 1 1 0 0 0 0 170 282 486 588 1038 1264 1131 1143 1045 1186 991 997 1067 1281 1473 1570 1637 1723 1841 2020 2120 1962 1873 1953 1855 1842 1776 1982 1465 1641 1192 1360 1084 1200 1214 1204 1241 1335 1312 1164 1107 497
21 11 0 0 0 0 0 25 641 668 972 1225 1290 1275 1257 1184 1108 1052 1024 1176 1301 1470 1645 1881 2202 1932 1918 1873 1763 1657 1737 1585 1573 1536 1403 1481 1355 1502 1393 1172 956 1166 1337 1170 1148 1007 942 859 930
0 10 0 4 0 0 56 96 156 670 1267 1434 1359 1325 1332 1334 1228 997 1258 1403 1505 1355 1660 1882 2056 1854 1926 1762 1469 1432 1563 1403 1545 1457 1352 1402 1259 1224 1493 1116 790 722 752 995 751 711 572 290 366
0 6 6 11 0 10 40 48 609 453 1350 1584 1513 1437 1298 1471 1319 1035 1125 1113 1600 1538 1504 1842 1772 1722 1404 1312 1372 1234 1128 1719 1351 936 802 1482 1458 1193 1474 1118 789 424 49 539 525 476 277 84 442
0 0 14 43 18 5 23 116 155 471 775 1225 1702 1688 1568 1396 1301 1184 1170 946 1548 1286 1871 2059 1231 775 773 688 521 888 761 1021 1493 1146 1507 1644 1535 1313 1251 1297 1142 926 545 277 376 163 159 100 295
0 0 7 50 39 0 0 157 239 248 1003 1130 1429 1671 1613 1553 1325 1473 1656 1178 1669 1653 1805 1351 735 481 408 137 283 187 372 738 1208 1054 1695 1647 1684 1454 1190 1125 1322 1234 965 447 220 129 91 9 37
0 0 0 30 8 17 4 30 290 287 1102 1278 1359 1760 1670 1659 1805 1805 1637 1599 1457 2389 1795 1192 471 272 98 4 2 3 113 538 1027 1434 1219 1563 1618 1381 1003 1177 1225 1094 736 581 451 384 318 317 390
0 0 0 0 0 0 0 24 310 359 1218 1421 1614 1914 1908 1864 1825 1943 2013 2194 2552 2517 1854 1305 827 308 149 3 0 0 36 149 652 1992 1758 1534 1222 1023 1243 1164 904 710 618 628 590 438 404 436 343
0 0 0 0 0 0 0 0 2 323 716 1554 1841 2008 2203 2190 2169 2072 2022 1925 2052 2836 2222 1625 1172 623 44 0 27 20 45 213 547 1391 1387 1602 1620 1225 1104 974 760 539 449 498 443 525 195 248 109
0 0 0 0 0 9 12 6 0 10 291 1711 1986 2129 2218 2342 2318 2310 2287 2129 2054 2183 2288 2003 1123 376 94 30 22 30 142 280 700 1281 1214 1556 957 768 666 568 431 623 589 503 385 328 242 216 73
0 0 0 0 0 0 0 0 0 7 210 225 2157 2241 2265 2241 2474 2316 2220 2061 1838 2412 2512 2040 1449 535 277 197 59 104 318 782 778 1079 813 652 635 680 606 536 567 470 649 511 519 358 305 294 204
0 0 0 0 0 0 0 0 4 129 201 312 968 2228 2217 2300 2387 2339 2231 1898 1813 2417 2329 2367 2010 1435 988 537 567 770 1028 1408 941 559 659 347 782 581 604 688 468 654 701 705 572 456 352 304 227
0 0 0 0 0 0 0 12 38 2 264 250 254 493 2168 2488 2313 2366 2147 1901 1930 1993 2299 2413 2188 2167 1772 1409 1321 1380 1282 849 707 661 415 473 565 519 354 245 526 703 684 749 607 528 415 293 291
0 0 0 1 0 20 5 12 2 5 78 425 456 1588 2090 2601 2510 2333 2064 1936 1905 1927 2193 2346 2107 2287 2255 1636 1590 1203 1055 1191 663 487 569 328 291 157 28 278 543 610 698 621 838 599 446 300 323
0 0 0 8 2 48 85 14 44 114 192 142 433 1380 2118 2221 2163 2034 1860 1744 1839 1678 2047 2266 1954 2187 1988 1506 1204 1281 991 776 628 448 403 165 5 34 100 386 363 491 405 531 612 579 576 351 211
0 0 0 0 7 16 36 102 159 69 163 309 392 941 2019 1990 1839 1834 1833 1648 1381 1467 2111 2074 2245 1599 1725 1365 1124 1051 947 580 386 482 209 0 2 139 317 172 237 326 531 148 113 156 163 462 282
0 0 0 1 4 11 20 200 74 26 69 207 529 939 1863 2013 1844 1766 1767 1678 1460 1382 1854 2276 2260 1566 1626 1208 1102 951 719 539 473 334 65 0 4 71 87 6 0 0 86 179 208 259 294 302 280
0 0 0 1 0 11 20 232 214 28 47 132 265 1401 1717 1791 1806 1748 1733 1677 1592 1163 1370 2160 1879 1761 1440 1072 979 1019 672 354 427 254 27 20 29 31 0 10 6 2 0 0 1 6 26 51 118
0 0 14 20 32 11 31 121 206 78 172 375 717 1162 1280 1482 1706 1959 1817 1732 1399 1163 1779 1019 1085 1441 1234 1065 864 941 831 357 274 149 156 157 42 7 0 7 8 0 0 0 0 0 0 0 0
CIN
-288 -153 -123 -243 -70 -0 -0 -0 -0 -0 -0 -0 -129 -74 -51 -68 -72 -41 -51 -82 -146 -96 -23 -6 -0 -0 -0 -0 -0 -0 -0 -0 -0 -0 -0 -0 -0 -0 -0 -2 -1 -0 -0 -2 -6 -0 -0 -0 -0
-111 -133 -120 -64 -33 -0 -0 -0 -0 -0 -0 -73 -90 -75 -78 -59 -34 -20 -19 -111 -144 -126 -46 -8 -0 -0 -0 -0 -0 -0 -0 -0 -0 -0 -0 -0 -0 -0 -0 -1 -2 -0 -0 -0 -2 -0 -0 -0 -0
-64 -203 -99 -29 -2 -0 -0 -0 -0 -5 -25 -70 -82 -63 -53 -29 -11 -22 -107 -131 -132 -105 -46 -4 -0 -0 -0 -0 -0 -0 -0 -0 -0 -0 -0 -0 -0 -0 -0 -1 -0 -0 -0 -2 -0 -0 -0 -0 -0
-26 -41 -71 -45 -0 -0 -0 -0 -0 -24 -43 -58 -75 -74 -30 -27 -24 -80 -88 -116 -112 -88 -20 -0 -0 -0 -0 -0 -0 -0 -0 -0 -0 -0 -0 -0 -0 -0 -0 -0 -0 -0 -1 -1 -1 -0 -0 -0 -2
-214 -383 -297 -209 -81 -4 -12 -0 -39 -16 -47 -86 -94 -65 -85 -63 -20 -33 -52 -78 -132 -94 -38 -1 -0 -0 -0 -0 -0 -0 -0 -0 -0 -0 -0 -0 -0 -0 -0 -0 -0 -1 -3 -0 -0 -0 -0 -5 -23
-154 -193 -344 -99 -19 -24 -11 -23 -24 -5 -21 -38 -91 -118 -76 -46 -4 -9 -37 -71 -60 -144 -96 -48 -0 -0 -0 -0 -0 -0 -0 -0 -0 -0 -0 -0 -0 -0 -0 -0 -1 -3 -6 -2 -7 -0 -1 -3 -13
-54 -152 -165 -75 -22 -15 -27 -6 -4 -19 -19 -44 -84 -121 -76 -22 -4 -42 -68 -57 -122 -137 -137 -85 -42 -29 -9 -1 -2 -0 -0 -0 -0 -0 -0 -0 -0 -0 -0 -0 -0 -3 -6 -7 -53 -4 -2 -2 -10
-130 -87 -7 -23 -8 -6 -29 -2 -42 -47 -38 -38 -83 -110 -68 -59 -16 -47 -59 -108 -36 -124 -154 -130 -94 -67 -37 -25 -0 -0 -0 -0 -0 -0 -0 -0 -0 -0 -3 -0 -0 -19 -20 -14 -5 -10 -5 -0 -55
-92 -5 -43 -192 -91 -4 -6 -54 -58 -61 -66 -40 -53 -120 -114 -92 -55 -20 -42 -61 -55 -96 -114 -114 -113 -82 -69 -43 -16 -3 -7 -2 -1 -6 -3 -1 -2 -9 -13 -17 -7 -11 -20 -17 -11 -0 -0 -0 -2
-104 -292 -235 -122 -38 -29 -2 -63 -81 -117 -63 -65 -79 -111 -117 -113 -103 -44 -34 -14 -22 -59 -57 -87 -111 -80 -42 -13 -18 -15 -50 -37 -32 -35 -40 -27 -37 -27 -18 -26 -19 -6 -12 -17 -2 -0 -1 -1 -5
-14 -8 -102 -46 -24 -0 -4 -90 -122 -157 -58 -74 -71 -125 -156 -133 -123 -70 -50 -34 -24 -37 -56 -64 -73 -66 -37 -19 -23 -16 -24 -18 -12 -31 -34 -30 -55 -29 -18 -24 -28 -28 -16 -22 -8 -3 -12 -30 -35
-34 -4 -67 -0 -0 -0 -0 -74 -37 -33 -44 -89 -82 -130 -140 -129 -106 -101 -124 -60 -50 -53 -34 -65 -55 -65 -23 -15 -45 -27 -26 -22 -15 -16 -23 -46 -27 -32 -12 -25 -67 -49 -50 -45 -36 -20 -29 -21 -65
-49 -36 -0 -0 -0 -0 -0 -49 -58 -43 -51 -86 -120 -131 -131 -112 -79 -87 -105 -76 -66 -61 -62 -45 -51 -40 -31 -31 -32 -38 -25 -29 -37 -23 -57 -58 -34 -39 -20 -13 -35 -15 -15 -14 -21 -31 -32 -53 -21
-0 -86 -0 -67 -0 -0 -96 -64 -35 -35 -59 -77 -64 -110 -105 -106 -69 -67 -26 -38 -69 -67 -56 -88 -52 -65 -52 -22 -24 -15 -15 -24 -29 -18 -60 -60 -38 -27 -19 -28 -23 -8 -44 -15 -32 -38 -54 -168 -191
-0 -91 -61 -55 -0 -20 -75 -52 -26 -25 -43 -59 -72 -52 -65 -51 -58 -70 -41 -37 -57 -72 -85 -59 -35 -29 -35 -36 -22 -36 -37 -61 -18 -75 -99 -74 -46 -57 -35 -29 -30 -34 -22 -52 -32 -43 -29 -133 -165
-0 -0 -38 -35 -45 -16 -83 -141 -41 -52 -58 -34 -62 -48 -45 -39 -35 -73 -72 -59 -21 -43 -26 -30 -22 -33 -28 -35 -12 -8 -10 -9 -10 -20 -77 -69 -48 -53 -46 -29 -28 -29 -32 -33 -38 -37 -46 -42 -71
-0 -0 -30 -23 -8 -0 -0 -40 -35 -50 -47 -43 -59 -38 -54 -45 -57 -66 -55 -69 -44 -47 -34 -24 -44 -64 -27 -59 -47 -34 -34 -16 -12 -40 -31 -56 -40 -28 -27 -31 -25 -7 -8 -31 -56 -82 -58 -19 -149
-0 -0 -0 -21 -40 -55 -35 -34 -44 -42 -47 -61 -70 -74 -111 -79 -43 -59 -51 -48 -62 -93 -49 -26 -71 -87 -26 -108 -26 -42 -43 -41 -22 -22 -52 -39 -43 -24 -21 -38 -21 -18 -12 -3 -15 -91 -26 -30 -43
-0 -0 -0 -0 -0 -0 -0 -32 -18 -24 -54 -55 -91 -85 -114 -45 -65 -35 -27 -22 -70 -60 -48 -22 -41 -36 -23 -26 -0 -0 -237 -81 -20 -41 -37 -23 -7 -36 -15 -10 -15 -23 -22 -22 -28 -24 -20 -12 -26
-0 -0 -0 -0 -0 -0 -0 -0 -37 -21 -31 -68 -97 -128 -84 -83 -73 -59 -57 -36 -27 -39 -35 -23 -56 -56 -35 -4 -179 -99 -126 -22 -32 -41 -19 -27 -19 -27 -32 -14 -18 -27 -36 -37 -29 -24 -56 -19 -20
-0 -0 -0 -0 -0 -68 -83 -49 -0 -2 -28 -71 -102 -106 -82 -70 -91 -98 -82 -65 -33 -58 -26 -21 -51 -46 -60 -17 -252 -205 -89 -59 -27 -13 -41 -24 -24 -23 -20 -19 -25 -14 -19 -31 -37 -36 -28 -21 -32
-0 -0 -0 -0 -0 -0 -0 -0 -0 -59 -36 -38 -90 -73 -65 -57 -93 -60 -54 -66 -62 -58 -46 -14 -39 -52 -65 -64 -301 -86 -45 -15 -22 -23 -44 -35 -37 -13 -19 -17 -12 -25 -14 -12 -21 -34 -25 -17 -26
-0 -0 -0 -0 -0 -0 -0 -0 -44 -22 -69 -110 -48 -41 -41 -81 -85 -62 -40 -75 -118 -55 -52 -35 -24 -38 -42 -60 -78 -35 -6 -14 -35 -44 -21 -30 -23 -5 -19 -14 -19 -8 -9 -6 -10 -33 -27 -30 -44
-0 -0 -0 -0 -0 -0 -37 -121 -25 -18 -57 -77 -29 -64 -42 -79 -62 -47 -64 -159 -125 -85 -36 -12 -11 -9 -9 -16 -26 -14 -32 -26 -7 -39 -44 -30 -19 -24 -45 -52 -13 -6 -10 -6 -14 -13 -24 -32 -40
-0 -0 -0 -61 -19 -90 -50 -47 -158 -106 -156 -22 -42 -36 -43 -63 -60 -60 -167 -164 -134 -96 -46 -14 -12 -8 -2 -9 -13 -31 -27 -20 -61 -68 -28 -19 -41 -87 -205 -24 -5 -16 -12 -8 -4 -8 -28 -29 -26
-0 -0 -0 -151 -65 -82 -134 -106 -87 -50 -57 -38 -32 -43 -52 -61 -57 -54 -92 -79 -109 -99 -53 -28 -26 -4 -4 -19 -36 -27 -54 -81 -67 -60 -18 -31 -23 -213 -80 -2 -19 -24 -24 -19 -9 -8 -10 -21 -29
-0 -2 -0 -0 -99 -27 -51 -104 -171 -75 -20 -31 -80 -37 -53 -47 -71 -77 -94 -82 -188 -132 -56 -41 -16 -34 -20 -55 -52 -47 -46 -51 -52 -25 -68 -0 -5 -75 -4 -26 -30 -18 -9 -50 -46 -53 -59 -18 -24
-0 -0 -0 -32 -33 -64 -54 -99 -14 -19 -276 -147 -30 -59 -44 -47 -107 -129 -134 -99 -121 -108 -37 -28 -22 -35 -8 -28 -26 -22 -33 -47 -58 -85 -129 -0 -9 -113 -71 -75 -0 -0 -33 -21 -31 -26 -17 -23 -7
-0 -0 -0 -16 -0 -46 -41 -100 -175 -270 -436 -285 -423 -47 -61 -56 -71 -120 -123 -86 -67 -130 -34 -14 -31 -19 -12 -25 -16 -17 -28 -81 -73 -151 -148 -132 -59 -93 -8 -48 -17 -13 -0 -0 -0 -24 -61 -28 -20
-0 -0 -70 -37 -41 -89 -27 -89 -235 -367 -303 -247 -285 -21 -9 -39 -44 -83 -72 -53 -91 -89 -27 -9 -22 -26 -20 -20 -17 -15 -11 -84 -101 -125 -98 -43 -83 -1 -0 -20 -19 -2 -0 -0 -0 -0 -0 -0 -0
Wind_Speed
35 32 21 15 20 nan nan nan nan nan nan nan nan 11 14 14 nan 12 21 28 30 22 16 16 18 20 19 19 16 15 16 16 14 12 11 10 10 12 15 13 13 10 11 11 9 7 7 6 4
31 30 19 24 15 nan nan nan nan nan nan nan nan nan 19 23 25 27 18 26 23 21 15 13 17 19 18 17 17 17 14 14 11 10 10 9 10 11 10 10 8 7 11 11 12 14 9 6 6
29 24 23 26 nan nan nan nan nan nan nan nan nan 6 11 22 25 17 33 32 24 20 15 15 18 18 17 16 16 16 16 15 13 12 12 13 13 15 14 12 12 12 11 12 16 17 8 8 8
19 19 14 19 nan nan nan nan nan nan nan nan nan 14 10 18 21 30 36 31 26 19 15 17 18 18 17 17 16 16 17 17 17 15 14 16 16 16 16 15 12 8 10 18 19 14 7 6 8
nan 5 nan nan nan nan nan nan nan nan 20 23 21 20 22 22 41 40 34 32 30 20 16 14 17 18 17 16 16 17 16 16 18 18 15 14 13 12 17 13 12 11 10 10 10 12 8 6 7
nan nan nan nan nan nan nan nan nan nan 18 22 27 25 25 27 27 33 27 27 19 15 18 15 17 17 16 16 15 16 17 15 16 18 18 16 13 11 11 11 10 12 11 8 8 7 3 6 11
nan nan nan 24 nan 14 nan nan nan nan 23 22 31 25 28 29 32 35 24 23 17 19 17 15 14 15 18 16 15 15 16 15 14 14 15 15 15 11 9 10 9 10 8 9 5 3 8 12 12
nan 4 nan nan nan nan 18 nan nan nan 19 28 34 30 33 37 34 31 24 21 22 19 18 16 14 11 11 12 17 15 14 15 14 13 13 13 12 11 11 9 8 10 9 6 11 11 8 11 13
9 nan nan nan nan 9 21 32 7 11 19 12 19 32 35 37 34 30 22 16 18 20 20 19 16 12 11 12 12 14 16 15 13 12 11 9 7 7 8 8 9 9 8 9 10 9 10 13 11
nan nan nan nan nan nan nan 32 24 14 7 17 21 28 33 35 31 29 25 18 17 19 19 18 18 16 12 13 12 9 8 11 10 9 8 8 6 7 8 10 13 15 13 11 10 11 11 12 18
nan nan nan nan nan nan nan 18 16 22 14 21 31 31 33 30 29 30 27 27 20 22 20 19 18 17 16 11 11 10 11 11 11 10 8 5 4 4 7 9 10 12 13 10 12 13 15 15 15
nan nan nan nan nan nan nan 16 22 28 26 30 28 31 31 29 31 27 26 23 19 21 19 23 18 15 15 12 8 7 7 9 6 8 9 5 6 5 7 9 11 12 13 15 11 11 12 13 16
nan nan nan nan nan nan nan nan 24 23 31 31 32 33 29 28 28 26 27 29 26 22 19 19 22 19 14 13 8 6 7 5 4 3 2 4 4 3 3 10 9 8 18 17 18 13 9 11 16
nan nan nan nan nan nan nan nan 14 21 34 36 32 28 28 27 28 25 25 28 33 29 28 26 23 21 19 13 11 6 5 1 5 7 1 3 2 3 4 6 7 10 9 17 22 14 11 12 12
nan nan nan nan nan nan nan nan 14 21 28 35 33 31 27 27 29 27 29 29 35 32 32 31 31 24 22 19 14 9 3 3 14 9 9 3 5 8 9 9 6 8 nan 15 15 13 15 nan 12
nan nan nan nan nan nan nan 6 6 15 24 32 38 34 30 28 29 29 29 32 32 31 32 27 29 32 33 30 22 16 10 11 3 7 5 5 9 10 12 10 9 9 9 12 16 17 15 14 11
nan nan nan nan nan nan nan 17 18 21 27 28 32 33 32 28 27 29 29 30 34 31 37 39 39 36 28 20 21 19 13 11 11 5 1 8 9 10 12 12 10 12 16 12 17 18 nan nan nan
nan nan nan nan nan nan nan nan 17 23 40 29 26 32 33 30 28 32 33 33 34 34 45 41 48 33 nan nan nan nan 25 20 15 5 4 9 9 9 11 11 8 6 10 12 13 20 21 22 19
nan nan nan nan nan nan nan nan 13 23 36 30 27 28 34 34 29 31 32 32 34 39 45 31 39 42 29 nan nan nan nan 24 18 8 3 7 12 8 5 8 7 7 10 12 15 15 18 24 26
nan nan nan nan nan nan nan nan nan 19 30 35 37 32 29 30 32 32 30 28 30 30 35 31 30 33 nan nan nan nan nan 12 19 8 1 4 11 10 4 5 6 7 8 6 8 11 14 17 18
nan nan nan nan nan nan nan nan nan nan 29 38 36 30 30 36 36 32 29 29 28 30 33 34 32 36 nan nan nan nan 8 14 10 3 4 8 12 13 7 4 4 5 9 8 10 11 13 18 nan
nan nan nan nan nan nan nan nan nan nan 28 29 36 27 39 37 38 34 32 29 31 27 31 34 36 35 34 35 nan 21 13 7 6 6 7 8 8 7 4 5 4 4 9 12 11 12 14 17 18
nan nan nan nan nan nan nan nan nan 21 27 32 27 28 47 41 42 38 33 31 31 31 29 30 37 37 34 30 25 15 9 7 3 7 6 4 13 12 5 6 6 2 5 9 12 13 14 15 17
nan nan nan nan nan nan nan nan nan nan 22 19 23 30 49 49 40 34 31 32 30 31 31 29 29 29 27 25 21 9 9 9 10 7 8 8 10 7 4 5 5 4 9 12 10 10 13 14 15
nan nan nan nan nan nan nan nan nan nan nan 21 32 40 43 41 38 32 33 30 29 30 31 30 26 24 22 20 13 10 7 10 10 12 11 11 12 8 nan 8 8 10 11 15 13 14 10 10 12
nan nan nan nan nan nan nan nan nan 31 25 25 26 36 41 35 31 29 27 25 29 32 32 31 29 22 17 16 11 8 9 11 14 13 17 17 nan nan 11 12 8 5 12 14 14 13 5 5 8
nan nan nan nan nan nan nan 19 18 nan 30 34 28 23 26 27 27 27 26 28 27 30 33 35 30 20 14 14 13 13 15 16 14 15 16 nan nan 11 10 9 7 4 8 15 16 11 3 3 4
nan nan nan nan nan nan nan 14 nan nan nan 21 29 39 30 23 25 27 24 26 25 31 32 38 32 22 14 14 15 16 17 17 15 15 nan nan nan nan nan nan nan nan nan 9 11 8 6 5 2
nan nan nan nan nan nan nan 17 22 nan nan 36 40 11 21 23 26 24 25 25 30 36 37 35 32 23 17 14 12 16 15 14 15 15 nan nan nan nan nan nan nan nan nan nan nan nan nan nan 5
nan nan nan nan nan nan nan 22 31 nan 46 45 60 51 21 20 21 25 27 25 32 35 33 23 15 15 9 14 11 14 14 13 12 12 14 14 nan nan nan nan nan nan nan nan nan nan nan nan nan
Wind_Direction
108 103 75 81 62 nan nan nan nan nan nan nan nan 299 332 1 nan 354 307 309 314 311 313 307 305 298 293 290 287 288 296 300 299 299 290 295 296 296 276 274 282 261 262 255 262 282 265 265 250
115 111 90 72 50 nan nan nan nan nan nan nan nan nan 303 288 302 323 297 309 308 310 305 291 292 295 296 295 292 299 306 306 298 306 305 304 302 307 297 285 289 294 284 277 278 275 292 261 272
112 96 107 80 nan nan nan nan nan nan nan nan nan 317 353 334 332 335 315 318 313 303 296 296 290 291 292 294 300 304 303 298 294 290 293 296 299 305 306 299 286 281 273 279 278 264 277 268 288
106 125 108 84 nan nan nan nan nan nan nan nan nan 345 338 335 336 335 325 322 305 305 298 294 296 299 298 300 304 305 301 297 293 292 293 285 295 302 308 309 313 301 307 278 272 253 252 252 274
nan 180 nan nan nan nan nan nan nan nan 336 332 341 343 352 353 327 329 329 312 316 304 302 298 306 307 304 301 306 308 311 311 313 316 312 309 299 288 282 294 295 297 291 277 263 273 248 270 279
nan nan nan nan nan nan nan nan nan nan 331 342 336 349 359 357 345 335 320 287 274 304 307 307 309 315 311 306 309 310 309 313 317 321 321 326 320 307 304 299 289 283 287 271 265 263 328 277 287
nan nan nan 105 nan 342 nan nan nan nan 339 356 350 360 6 2 7 352 336 298 306 328 304 310 312 319 317 312 314 317 316 319 329 331 329 334 337 343 330 319 305 292 290 243 253 297 238 259 267
nan 157 nan nan nan nan 350 nan nan nan 350 345 360 10 7 8 0 0 13 338 324 315 311 317 314 315 316 308 312 312 316 320 326 318 327 338 346 352 354 335 332 320 304 283 258 257 273 256 273
324 nan nan nan nan 353 340 311 297 329 306 342 19 358 359 358 355 355 4 357 335 323 317 317 318 318 316 309 317 322 321 317 318 318 333 326 310 335 355 345 356 343 323 273 260 260 244 254 289
nan nan nan nan nan nan nan 319 344 355 316 341 341 354 357 360 350 360 358 353 343 338 327 333 326 325 316 309 295 293 286 273 280 290 305 297 323 316 340 351 4 344 330 302 278 257 270 263 252
nan nan nan nan nan nan nan 309 308 338 35 13 353 1 359 1 357 0 5 353 353 342 336 333 330 326 324 312 294 294 287 286 288 299 292 274 308 289 318 286 290 291 318 282 274 261 250 259 263
nan nan nan nan nan nan nan 319 320 1 20 9 355 359 2 357 2 9 4 355 350 346 339 328 323 310 314 307 303 299 288 263 264 301 323 261 252 250 286 283 284 281 281 289 288 277 272 269 274
nan nan nan nan nan nan nan nan 324 340 354 358 355 359 359 357 0 9 1 1 356 355 347 335 316 309 304 302 296 273 258 258 245 253 278 259 280 277 278 269 258 278 278 272 277 287 280 276 265
nan nan nan nan nan nan nan nan 319 342 348 353 352 354 1 352 354 360 354 358 355 356 357 346 331 320 280 270 276 254 273 225 232 203 125 20 338 330 297 281 290 283 304 257 264 280 290 284 266
nan nan nan nan nan nan nan nan 338 342 343 341 351 355 360 357 355 354 352 350 352 354 356 342 334 311 260 241 241 243 284 177 248 189 104 41 323 316 306 292 294 312 nan 290 253 259 256 nan 274
nan nan nan nan nan nan nan 62 26 0 348 348 349 356 355 356 352 353 350 346 345 347 333 321 296 283 257 221 210 217 198 170 119 34 19 351 351 333 312 307 308 304 297 291 267 258 259 259 253
nan nan nan nan nan nan nan 329 10 3 354 356 345 347 347 347 348 347 348 347 343 342 312 310 299 292 292 256 197 187 189 186 139 90 342 3 357 341 310 306 308 305 295 279 277 269 nan nan nan
nan nan nan nan nan nan nan nan 325 344 335 341 347 338 342 344 344 341 344 348 343 337 327 322 319 330 nan nan nan nan 192 176 150 106 34 353 1 337 314 322 328 322 292 296 287 276 276 264 264
nan nan nan nan nan nan nan nan 307 322 331 334 337 342 342 341 342 339 335 338 338 336 341 337 327 340 344 nan nan nan nan 153 139 120 92 348 354 345 348 301 292 279 286 284 289 282 280 263 254
nan nan nan nan nan nan nan nan nan 331 321 332 333 341 344 341 332 336 330 330 331 341 338 336 328 337 nan nan nan nan nan 80 103 94 2 319 340 351 339 341 323 309 292 281 299 296 282 275 284
nan nan nan nan nan nan nan nan nan nan 294 313 333 338 343 343 336 331 326 329 331 342 340 336 333 324 nan nan nan nan 109 50 62 76 310 330 349 348 336 350 326 314 308 299 292 296 297 280 nan
nan nan nan nan nan nan nan nan nan nan 288 289 300 314 343 342 333 328 323 326 330 334 337 336 329 325 335 338 nan 15 40 65 42 351 342 352 346 326 294 12 323 281 315 316 313 307 298 281 283
nan nan nan nan nan nan nan nan nan 271 239 272 290 324 326 333 329 325 322 324 320 327 332 334 336 335 336 342 355 7 56 49 329 342 325 357 324 304 335 323 315 5 323 334 329 317 297 284 277
nan nan nan nan nan nan nan nan nan nan 254 265 285 325 328 324 322 321 317 318 321 329 330 330 329 333 329 335 342 352 348 340 341 347 351 358 342 4 354 356 13 48 11 353 333 311 298 295 288
nan nan nan nan nan nan nan nan nan nan nan 300 325 316 315 317 315 311 313 320 326 330 328 327 322 331 323 316 315 321 338 318 328 352 4 356 15 19 nan 48 37 27 19 6 347 328 287 284 290
nan nan nan nan nan nan nan nan nan 262 238 220 275 296 313 312 313 316 322 327 328 331 330 327 328 326 321 301 290 284 273 327 350 343 0 6 nan nan 34 41 17 5 4 357 342 330 257 309 295
nan nan nan nan nan nan nan 301 304 nan 261 287 321 307 310 313 319 325 330 330 334 333 330 330 329 321 299 284 272 281 308 323 325 340 355 nan nan 30 36 24 22 41 20 7 5 15 230 238 291
nan nan nan nan nan nan nan 292 nan nan nan 286 286 277 302 309 318 326 334 330 330 331 329 328 324 319 287 281 278 301 308 309 309 331 nan nan nan nan nan nan nan nan nan 8 16 24 54 196 241
nan nan nan nan nan nan nan 257 270 nan nan 260 246 181 303 315 327 325 323 334 328 337 335 321 313 303 288 271 282 293 300 303 302 321 nan nan nan nan nan nan nan nan nan nan nan nan nan nan 235
nan nan nan nan nan nan nan 265 264 nan 281 288 277 133 157 304 315 320 322 326 337 332 324 299 277 270 254 258 279 285 297 303 305 319 336 346 nan nan nan nan nan nan nan nan nan nan nan nan nan